Time,TemperatureF,DewpointF,PressureIn,WindDirection,WindDirectionDegrees,WindSpeedMPH,WindSpeedGustMPH,Humidity,HourlyPrecipIn,Conditions,Clouds,dailyrainin,SoftwareType,DateUTC
2013-05-26 00:03:00,54.0,33.0,-100.00,South,185,0.0,0.0,45,0.00,,,-99.99,,2013-05-26 04:03:00,
2013-05-26 00:12:00,54.0,33.0,-100.00,SSW,195,0.0,0.0,45,0.00,,,-99.99,,2013-05-26 04:12:00,
2013-05-26 00:23:00,53.0,33.0,-100.00,NW,315,0.0,0.0,46,0.00,,,-99.99,,2013-05-26 04:23:00,
2013-05-26 00:33:00,53.0,34.0,-100.00,NW,320,0.0,0.0,48,0.00,,,-99.99,,2013-05-26 04:33:00,
2013-05-26 00:42:00,53.0,34.0,-100.00,WSW,240,0.0,0.0,49,0.00,,,-99.99,,2013-05-26 04:42:00,
2013-05-26 00:52:00,52.0,35.0,-100.00,North,5,0.0,0.0,51,0.00,,,-99.99,,2013-05-26 04:52:00,
2013-05-26 01:02:00,53.0,34.0,-100.00,South,170,0.0,0.0,48,0.00,,,-99.99,,2013-05-26 05:02:00,
2013-05-26 01:12:00,52.0,34.0,-100.00,SSW,200,0.0,0.0,49,0.00,,,-99.99,,2013-05-26 05:12:00,
2013-05-26 01:22:00,52.0,34.0,-100.00,SW,215,0.0,0.0,51,0.00,,,-99.99,,2013-05-26 05:22:00,
2013-05-26 01:32:00,52.0,34.0,-100.00,SW,215,0.0,0.0,51,0.00,,,-99.99,,2013-05-26 05:32:00,
2013-05-26 01:42:00,49.0,37.0,-100.00,NW,320,0.0,0.0,62,0.00,,,-99.99,,2013-05-26 05:42:00,
2013-05-26 01:52:00,49.0,38.0,-100.00,NE,35,0.0,0.0,65,0.00,,,-99.99,,2013-05-26 05:52:00,
2013-05-26 02:01:00,49.0,36.0,-100.00,South,170,0.0,0.0,60,0.00,,,-99.99,,2013-05-26 06:01:00,
2013-05-26 02:12:00,49.0,37.0,-100.00,SSW,205,0.0,0.0,62,0.00,,,-99.99,,2013-05-26 06:12:00,
2013-05-26 02:22:00,47.0,37.0,-100.00,NNE,25,0.0,0.0,68,0.00,,,-99.99,,2013-05-26 06:22:00,
2013-05-26 02:32:00,47.0,37.0,-100.00,NNE,15,0.0,0.0,69,0.00,,,-99.99,,2013-05-26 06:32:00,
2013-05-26 02:42:00,47.0,37.0,-100.00,SE,140,0.0,0.0,68,0.00,,,-99.99,,2013-05-26 06:42:00,
2013-05-26 02:52:00,47.0,38.0,-100.00,SE,125,0.0,0.0,69,0.00,,,-99.99,,2013-05-26 06:52:00,
2013-05-26 03:01:00,47.0,38.0,-100.00,SW,230,0.0,0.0,69,0.00,,,-99.99,,2013-05-26 07:01:00,
2013-05-26 03:11:00,46.0,38.0,-100.00,East,95,0.0,0.0,73,0.00,,,-99.99,,2013-05-26 07:11:00,
2013-05-26 03:22:00,46.0,38.0,-100.00,SSW,200,0.0,0.0,74,0.00,,,-99.99,,2013-05-26 07:22:00,
2013-05-26 03:32:00,46.0,38.0,-100.00,East,95,0.0,0.0,72,0.00,,,-99.99,,2013-05-26 07:32:00,
2013-05-26 03:42:00,44.0,38.0,-100.00,East,90,0.0,0.0,76,0.00,,,-99.99,,2013-05-26 07:42:00,
2013-05-26 03:52:00,45.0,38.0,-100.00,SSE,150,0.0,0.0,77,0.00,,,-99.99,,2013-05-26 07:52:00,
2013-05-26 04:01:00,45.0,38.0,-100.00,SSW,205,0.0,0.0,75,0.00,,,-99.99,,2013-05-26 08:01:00,
2013-05-26 04:12:00,45.0,38.0,-100.00,SSW,205,0.0,0.0,74,0.00,,,-99.99,,2013-05-26 08:12:00,
2013-05-26 04:21:00,45.0,38.0,-100.00,ESE,105,0.0,0.0,78,0.00,,,-99.99,,2013-05-26 08:21:00,
2013-05-26 04:32:00,45.0,38.0,-100.00,NW,315,0.0,0.0,76,0.00,,,-99.99,,2013-05-26 08:32:00,
2013-05-26 04:42:00,44.0,37.0,-100.00,SW,215,0.0,0.0,76,0.00,,,-99.99,,2013-05-26 08:42:00,
2013-05-26 04:53:00,44.0,38.0,-100.00,SW,215,0.0,0.0,78,0.00,,,-99.99,,2013-05-26 08:53:00,
2013-05-26 05:01:00,44.0,37.0,-100.00,South,185,0.0,0.0,74,0.00,,,-99.99,,2013-05-26 09:01:00,
2013-05-26 05:11:00,44.0,37.0,-100.00,South,180,0.0,0.0,74,0.00,,,-99.99,,2013-05-26 09:11:00,
2013-05-26 05:21:00,44.0,37.0,-100.00,South,185,0.0,0.0,75,0.00,,,-99.99,,2013-05-26 09:21:00,
2013-05-26 05:33:00,44.0,37.0,-100.00,South,175,0.0,0.0,75,0.00,,,-99.99,,2013-05-26 09:33:00,
2013-05-26 05:42:00,44.0,37.0,-100.00,South,185,0.0,0.0,76,0.00,,,-99.99,,2013-05-26 09:42:00,
2013-05-26 05:52:00,44.0,37.0,-100.00,SSW,195,0.0,0.0,77,0.00,,,-99.99,,2013-05-26 09:52:00,
2013-05-26 06:03:00,44.0,37.0,-100.00,North,0,0.0,0.0,77,0.00,,,-99.99,,2013-05-26 10:03:00,
2013-05-26 06:12:00,43.0,37.0,-100.00,SSW,210,0.0,0.0,78,0.00,,,-99.99,,2013-05-26 10:12:00,
2013-05-26 06:23:00,44.0,37.0,-100.00,South,180,0.0,0.0,77,0.00,,,-99.99,,2013-05-26 10:23:00,
2013-05-26 06:33:00,43.0,37.0,-100.00,SSE,150,0.0,0.0,77,0.00,,,-99.99,,2013-05-26 10:33:00,
2013-05-26 06:42:00,43.0,36.0,-100.00,SE,140,0.0,0.0,78,0.00,,,-99.99,,2013-05-26 10:42:00,
2013-05-26 06:52:00,44.0,37.0,-100.00,SSW,195,0.0,0.0,77,0.00,,,-99.99,,2013-05-26 10:52:00,
2013-05-26 07:03:00,44.0,37.0,-100.00,SSW,205,0.0,0.0,76,0.00,,,-99.99,,2013-05-26 11:03:00,
2013-05-26 07:11:00,45.0,37.0,-100.00,SW,215,0.0,0.0,74,0.00,,,-99.99,,2013-05-26 11:11:00,
2013-05-26 07:22:00,46.0,38.0,-100.00,SSW,195,0.0,0.0,74,0.00,,,-99.99,,2013-05-26 11:22:00,
2013-05-26 07:32:00,47.0,38.0,-100.00,SSW,195,0.0,0.0,70,0.00,,,-99.99,,2013-05-26 11:32:00,
2013-05-26 07:42:00,48.0,38.0,-100.00,SSW,210,0.0,0.0,69,0.00,,,-99.99,,2013-05-26 11:42:00,
2013-05-26 07:52:00,50.0,39.0,-100.00,South,190,0.0,0.0,66,0.00,,,-99.99,,2013-05-26 11:52:00,
2013-05-26 08:02:00,51.0,38.0,-100.00,SSW,205,0.0,0.0,62,0.00,,,-99.99,,2013-05-26 12:02:00,
2013-05-26 08:12:00,53.0,39.0,-100.00,SE,130,0.0,0.0,59,0.00,,,-99.99,,2013-05-26 12:12:00,
2013-05-26 08:21:00,54.0,38.0,-100.00,SSE,165,0.0,0.0,53,0.00,,,-99.99,,2013-05-26 12:21:00,
2013-05-26 08:32:00,54.0,35.0,-100.00,SSE,150,0.0,0.0,48,0.00,,,-99.99,,2013-05-26 12:32:00,
2013-05-26 08:42:00,55.0,36.0,-100.00,SE,130,0.0,0.0,48,0.00,,,-99.99,,2013-05-26 12:42:00,
2013-05-26 08:52:00,56.0,36.0,-100.00,South,185,0.0,0.0,46,0.00,,,-99.99,,2013-05-26 12:52:00,
2013-05-26 09:02:00,56.0,33.0,-100.00,SSE,150,0.0,0.0,43,0.00,,,-99.99,,2013-05-26 13:02:00,
2013-05-26 09:11:00,56.0,35.0,-100.00,South,180,0.0,0.0,43,0.00,,,-99.99,,2013-05-26 13:11:00,
2013-05-26 09:21:00,57.0,34.0,-100.00,SSE,165,0.0,0.0,42,0.00,,,-99.99,,2013-05-26 13:21:00,
2013-05-26 09:32:00,57.0,32.0,-100.00,SSW,200,0.0,0.0,39,0.00,,,-99.99,,2013-05-26 13:32:00,
2013-05-26 09:42:00,58.0,34.0,-100.00,SSW,195,0.0,0.0,40,0.00,,,-99.99,,2013-05-26 13:42:00,
2013-05-26 09:52:00,58.0,33.0,-100.00,SSE,155,0.0,0.0,38,0.00,,,-99.99,,2013-05-26 13:52:00,
2013-05-26 10:02:00,58.0,34.0,-100.00,South,190,0.0,0.0,40,0.00,,,-99.99,,2013-05-26 14:02:00,
2013-05-26 10:11:00,59.0,33.0,-100.00,South,180,0.0,0.0,38,0.00,,,-99.99,,2013-05-26 14:11:00,
2013-05-26 10:21:00,59.0,33.0,-100.00,SSE,150,0.0,0.0,37,0.00,,,-99.99,,2013-05-26 14:21:00,
2013-05-26 10:32:00,59.0,33.0,-100.00,SE,125,0.0,0.0,36,0.00,,,-99.99,,2013-05-26 14:32:00,
2013-05-26 10:42:00,60.0,33.0,-100.00,SE,135,0.0,0.0,36,0.00,,,-99.99,,2013-05-26 14:42:00,
2013-05-26 10:52:00,60.0,32.0,-100.00,SE,140,0.0,0.0,34,0.00,,,-99.99,,2013-05-26 14:52:00,
2013-05-26 11:02:00,59.0,30.0,-100.00,SSE,160,0.0,0.0,32,0.00,,,-99.99,,2013-05-26 15:02:00,
2013-05-26 11:12:00,60.0,31.0,-100.00,South,180,0.0,0.0,33,0.00,,,-99.99,,2013-05-26 15:12:00,
2013-05-26 11:22:00,60.0,31.0,-100.00,South,180,0.0,0.0,33,0.00,,,-99.99,,2013-05-26 15:22:00,
2013-05-26 11:33:00,60.0,27.0,-100.00,SSE,150,0.0,0.0,28,0.00,,,-99.99,,2013-05-26 15:33:00,
2013-05-26 11:43:00,61.0,26.0,-100.00,SSW,195,0.0,0.0,26,0.00,,,-99.99,,2013-05-26 15:43:00,
2013-05-26 11:53:00,63.0,28.0,-100.00,West,275,0.0,0.0,25,0.00,,,-99.99,,2013-05-26 15:53:00,
2013-05-26 12:03:00,62.0,27.0,-100.00,South,185,0.0,0.0,25,0.00,,,-99.99,,2013-05-26 16:03:00,
2013-05-26 12:12:00,63.0,28.0,-100.00,North,10,0.0,0.0,26,0.00,,,-99.99,,2013-05-26 16:12:00,
2013-05-26 12:23:00,63.0,27.0,-100.00,South,185,0.0,0.0,25,0.00,,,-99.99,,2013-05-26 16:23:00,
2013-05-26 12:33:00,64.0,28.0,-100.00,SSE,165,0.0,0.0,26,0.00,,,-99.99,,2013-05-26 16:33:00,
2013-05-26 12:42:00,64.0,28.0,-100.00,East,95,0.0,0.0,25,0.00,,,-99.99,,2013-05-26 16:42:00,
2013-05-26 12:52:00,65.0,31.0,-100.00,SSE,150,0.0,0.0,27,0.00,,,-99.99,,2013-05-26 16:52:00,
2013-05-26 13:02:00,64.0,29.0,-100.00,South,185,0.0,0.0,26,0.00,,,-99.99,,2013-05-26 17:02:00,
2013-05-26 13:11:00,65.0,29.0,-100.00,SSE,165,0.0,0.0,25,0.00,,,-99.99,,2013-05-26 17:11:00,
2013-05-26 13:22:00,65.0,28.0,-100.00,SE,135,0.0,0.0,24,0.00,,,-99.99,,2013-05-26 17:22:00,
2013-05-26 13:32:00,65.0,28.0,-100.00,SSW,200,0.0,0.0,24,0.00,,,-99.99,,2013-05-26 17:32:00,
2013-05-26 13:42:00,65.0,30.0,-100.00,ENE,60,0.0,0.0,26,0.00,,,-99.99,,2013-05-26 17:42:00,
2013-05-26 13:52:00,66.0,29.0,-100.00,South,180,0.0,0.0,25,0.00,,,-99.99,,2013-05-26 17:52:00,
2013-05-26 14:01:00,66.0,30.0,-100.00,ESE,115,0.0,0.0,26,0.00,,,-99.99,,2013-05-26 18:01:00,
2013-05-26 14:12:00,66.0,31.0,-100.00,South,170,0.0,0.0,26,0.00,,,-99.99,,2013-05-26 18:12:00,
2013-05-26 14:21:00,66.0,30.0,-100.00,SE,135,0.0,0.0,26,0.00,,,-99.99,,2013-05-26 18:21:00,
2013-05-26 14:32:00,66.0,30.0,-100.00,NE,50,0.0,0.0,25,0.00,,,-99.99,,2013-05-26 18:32:00,
2013-05-26 14:42:00,67.0,31.0,-100.00,East,90,0.0,0.0,25,0.00,,,-99.99,,2013-05-26 18:42:00,
2013-05-26 14:52:00,67.0,30.0,-100.00,SSE,150,0.0,0.0,25,0.00,,,-99.99,,2013-05-26 18:52:00,
2013-05-26 15:01:00,67.0,32.0,-100.00,ESE,115,0.0,0.0,27,0.00,,,-99.99,,2013-05-26 19:01:00,
2013-05-26 15:11:00,66.0,31.0,-100.00,East,95,0.0,0.0,26,0.00,,,-99.99,,2013-05-26 19:11:00,
2013-05-26 15:22:00,67.0,30.0,-100.00,SE,135,0.0,0.0,25,0.00,,,-99.99,,2013-05-26 19:22:00,
2013-05-26 15:32:00,68.0,32.0,-100.00,South,180,0.0,0.0,26,0.00,,,-99.99,,2013-05-26 19:32:00,
2013-05-26 15:42:00,68.0,30.0,-100.00,East,95,0.0,0.0,24,0.00,,,-99.99,,2013-05-26 19:42:00,
2013-05-26 15:52:00,68.0,30.0,-100.00,East,95,0.0,0.0,24,0.00,,,-99.99,,2013-05-26 19:52:00,
2013-05-26 16:02:00,67.0,27.0,-100.00,ESE,115,0.0,0.0,21,0.00,,,-99.99,,2013-05-26 20:02:00,
2013-05-26 16:11:00,69.0,30.0,-100.00,East,100,0.0,0.0,22,0.00,,,-99.99,,2013-05-26 20:11:00,
2013-05-26 16:22:00,68.0,30.0,-100.00,SE,130,0.0,0.0,24,0.00,,,-99.99,,2013-05-26 20:22:00,
2013-05-26 16:32:00,69.0,32.0,-100.00,ESE,120,0.0,0.0,25,0.00,,,-99.99,,2013-05-26 20:32:00,
2013-05-26 16:42:00,69.0,30.0,-100.00,NE,50,0.0,0.0,23,0.00,,,-99.99,,2013-05-26 20:42:00,
2013-05-26 16:52:00,69.0,31.0,-100.00,NW,325,0.0,0.0,24,0.00,,,-99.99,,2013-05-26 20:52:00,
2013-05-26 17:02:00,70.0,29.0,-100.00,SSE,165,0.0,0.0,22,0.00,,,-99.99,,2013-05-26 21:02:00,
2013-05-26 17:11:00,69.0,31.0,-100.00,South,190,0.0,0.0,24,0.00,,,-99.99,,2013-05-26 21:11:00,
2013-05-26 17:22:00,70.0,32.0,-100.00,SSE,150,0.0,0.0,24,0.00,,,-99.99,,2013-05-26 21:22:00,
2013-05-26 17:33:00,70.0,32.0,-100.00,West,265,0.0,0.0,24,0.00,,,-99.99,,2013-05-26 21:33:00,
2013-05-26 17:43:00,68.0,30.0,-100.00,SE,145,0.0,0.0,23,0.00,,,-99.99,,2013-05-26 21:43:00,
2013-05-26 17:53:00,69.0,30.0,-100.00,SSE,150,0.0,0.0,22,0.00,,,-99.99,,2013-05-26 21:53:00,
2013-05-26 18:03:00,69.0,31.0,-100.00,South,180,0.0,0.0,24,0.00,,,-99.99,,2013-05-26 22:03:00,
2013-05-26 18:12:00,68.0,31.0,-100.00,SE,130,0.0,0.0,24,0.00,,,-99.99,,2013-05-26 22:12:00,
2013-05-26 18:23:00,68.0,31.0,-100.00,SSW,195,0.0,0.0,25,0.00,,,-99.99,,2013-05-26 22:23:00,
2013-05-26 18:33:00,69.0,32.0,-100.00,South,190,0.0,0.0,25,0.00,,,-99.99,,2013-05-26 22:33:00,
2013-05-26 18:42:00,68.0,31.0,-100.00,ENE,70,0.0,0.0,25,0.00,,,-99.99,,2013-05-26 22:42:00,
2013-05-26 18:53:00,67.0,31.0,-100.00,NNW,340,0.0,0.0,26,0.00,,,-99.99,,2013-05-26 22:53:00,
2013-05-26 19:02:00,67.0,32.0,-100.00,ENE,75,0.0,0.0,26,0.00,,,-99.99,,2013-05-26 23:02:00,
2013-05-26 19:12:00,67.0,31.0,-100.00,ESE,110,0.0,0.0,26,0.00,,,-99.99,,2013-05-26 23:12:00,
2013-05-26 19:22:00,67.0,31.0,-100.00,ESE,120,0.0,0.0,26,0.00,,,-99.99,,2013-05-26 23:22:00,
2013-05-26 19:32:00,67.0,32.0,-100.00,South,190,0.0,0.0,27,0.00,,,-99.99,,2013-05-26 23:32:00,
2013-05-26 19:43:00,67.0,31.0,-100.00,South,170,0.0,0.0,26,0.00,,,-99.99,,2013-05-26 23:43:00,
2013-05-26 19:52:00,67.0,31.0,-100.00,SSE,150,0.0,0.0,26,0.00,,,-99.99,,2013-05-26 23:52:00,
2013-05-26 20:02:00,67.0,33.0,-100.00,South,180,0.0,0.0,28,0.00,,,-99.99,,2013-05-27 00:02:00,
2013-05-26 20:11:00,67.0,31.0,-100.00,SE,145,0.0,0.0,26,0.00,,,-99.99,,2013-05-27 00:11:00,
2013-05-26 20:22:00,67.0,32.0,-100.00,South,185,0.0,0.0,27,0.00,,,-99.99,,2013-05-27 00:22:00,
2013-05-26 20:32:00,67.0,32.0,-100.00,SE,140,0.0,0.0,27,0.00,,,-99.99,,2013-05-27 00:32:00,
2013-05-26 20:42:00,66.0,31.0,-100.00,SSE,155,0.0,0.0,27,0.00,,,-99.99,,2013-05-27 00:42:00,
2013-05-26 20:52:00,66.0,33.0,-100.00,SSE,160,0.0,0.0,29,0.00,,,-99.99,,2013-05-27 00:52:00,
2013-05-26 21:01:00,65.0,35.0,-100.00,SSW,200,0.0,0.0,32,0.00,,,-99.99,,2013-05-27 01:01:00,
2013-05-26 21:11:00,65.0,36.0,-100.00,SSW,195,0.0,0.0,34,0.00,,,-99.99,,2013-05-27 01:11:00,
2013-05-26 21:22:00,64.0,36.0,-100.00,SSW,210,0.0,0.0,35,0.00,,,-99.99,,2013-05-27 01:22:00,
2013-05-26 21:32:00,63.0,36.0,-100.00,SSW,210,0.0,0.0,37,0.00,,,-99.99,,2013-05-27 01:32:00,
2013-05-26 21:42:00,62.0,37.0,-100.00,SSW,200,0.0,0.0,38,0.00,,,-99.99,,2013-05-27 01:42:00,
2013-05-26 21:52:00,61.0,37.0,-100.00,SW,215,0.0,0.0,40,0.00,,,-99.99,,2013-05-27 01:52:00,
2013-05-26 22:02:00,61.0,37.0,-100.00,SSW,200,0.0,0.0,42,0.00,,,-99.99,,2013-05-27 02:02:00,
2013-05-26 22:11:00,60.0,37.0,-100.00,NNE,30,0.0,0.0,42,0.00,,,-99.99,,2013-05-27 02:11:00,
2013-05-26 22:22:00,59.0,38.0,-100.00,SSW,210,0.0,0.0,44,0.00,,,-99.99,,2013-05-27 02:22:00,
2013-05-26 22:32:00,59.0,38.0,-100.00,SSW,205,0.0,0.0,44,0.00,,,-99.99,,2013-05-27 02:32:00,
2013-05-26 22:42:00,58.0,38.0,-100.00,SSW,200,0.0,0.0,47,0.00,,,-99.99,,2013-05-27 02:42:00,
2013-05-26 22:52:00,58.0,38.0,-100.00,SSW,205,0.0,0.0,47,0.00,,,-99.99,,2013-05-27 02:52:00,
2013-05-26 23:02:00,58.0,39.0,-100.00,NW,315,0.0,0.0,49,0.00,,,-99.99,,2013-05-27 03:02:00,
2013-05-26 23:11:00,55.0,40.0,-100.00,SSW,195,0.0,0.0,55,0.00,,,-99.99,,2013-05-27 03:11:00,
2013-05-26 23:21:00,55.0,41.0,-100.00,NNE,25,0.0,0.0,58,0.00,,,-99.99,,2013-05-27 03:21:00,
2013-05-26 23:33:00,56.0,39.0,-100.00,South,190,0.0,0.0,52,0.00,,,-99.99,,2013-05-27 03:33:00,
2013-05-26 23:43:00,55.0,40.0,-100.00,North,0,0.0,0.0,57,0.00,,,-99.99,,2013-05-27 03:43:00,
2013-05-26 23:53:00,55.0,39.0,-100.00,South,190,0.0,0.0,55,0.00,,,-99.99,,2013-05-27 03:53:00,